Norfolk, NE

3:04 PM CDT on October 23, 2017 (GMT -0500)
Stefan Memorial

Weather History for KOFK - June, 2013

Change the Weather History Date:

Sunday, June 16, 2013

  Actual Average Record
Temperature  
Mean Temperature 72 °F 71 °F  
Max Temperature 84 °F 82 °F 106 °F (1946)
Min Temperature 59 °F 59 °F 44 °F (1976)
Degree Days  
Heating Degree Days 0 1  
Month to date heating degree days 42 25  
Since 1 June heating degree days 42 25  
Since 1 July heating degree days 6809 6638  
Cooling Degree Days 7 6  
Month to date cooling degree days 43 74  
Year to date cooling degree days 107 135  
Since 1 June cooling degree days 43 74  
Growing Degree Days 22 (Base 50)    
Moisture  
Dew Point 56 °F    
Average Humidity 71    
Maximum Humidity 100    
Minimum Humidity 42    
Precipitation  
Precipitation T in 0.14 in 2.39 in (1964)
Month to date precipitation 0.50 2.31  
Year to date precipitation 11.92 12.01  
Snow  
Snow 0.00 in 0.00 in - ()
Month to date snowfall 0.0 0.0  
Since 1 July snowfall 27.3 30.5  
Snow Depth 0.00 in    
Sea Level Pressure  
Sea Level Pressure 29.97 in    
Wind  
Wind Speed 5 mph (SSW)    
Max Wind Speed 22 mph    
Max Gust Speed 26 mph    
Visibility 9 miles    
Events Rain , Thunderstorm    
T = Trace of Precipitation, MM = Missing Value Source: NWS Daily Summary

Daily Weather History Graph

Daily Weather History Graph

Search for Another Location

Airport or City:

Trip Planner

Search our weather history database for the weather conditions in past years. The results will help you decide how hot, cold, wet, or windy it might be!

Date:

Astronomy

Jun. 16, 2013 Rise Set
Actual Time 5:53 AM CDT 9:07 PM CDT
Civil Twilight 5:19 AM CDT 9:41 PM CDT
Nautical Twilight 4:34 AM CDT 10:26 PM CDT
Astronomical Twilight 3:41 AM CDT 11:20 PM CDT
Moon 1:38 PM CDT (6/16) 1:06 AM CDT (6/16)
Length of Visible Light 16h 22m
Length of Day
15h 13m
Waxing Crescent, 50% of the Moon is Illuminated
Jun 16
Waxing Crescent
Jun 16
First Quarter
Jun 23
Full
Jun 29
Last Quarter
Jul 8
New

Hourly Weather History & Observations

Time (CDT) Temp. Heat Index Dew Point Humidity Pressure Visibility Wind Dir Wind Speed Gust Speed Precip Events Conditions
12:56 AM 66.0 °F - 61.0 °F 84% 29.95 in 10.0 mi Calm Calm - N/A   Clear
1:56 AM 62.1 °F - 60.1 °F 93% 29.96 in 10.0 mi West 3.5 mph - N/A   Clear
2:56 AM 61.0 °F - 59.0 °F 93% 29.97 in 10.0 mi West 3.5 mph - N/A   Clear
3:56 AM 61.0 °F - 57.9 °F 90% 29.96 in 9.0 mi Calm Calm - N/A   Clear
4:56 AM 60.1 °F - 59.0 °F 96% 29.97 in 5.0 mi West 3.5 mph - N/A   Clear
5:56 AM 60.1 °F - 57.9 °F 93% 29.96 in 4.0 mi West 5.8 mph - N/A   Clear
6:11 AM 60.8 °F - 59.0 °F 94% 29.99 in 2.5 mi WNW 5.8 mph - N/A   Clear
6:26 AM 59.0 °F - 57.2 °F 94% 29.99 in 3.0 mi WSW 3.5 mph - N/A   Clear
6:56 AM 61.0 °F - 60.1 °F 97% 29.97 in 3.0 mi WSW 3.5 mph - N/A   Clear
7:56 AM 68.0 °F - 60.1 °F 76% 29.98 in 10.0 mi Calm Calm - N/A   Clear
8:56 AM 73.0 °F - 57.0 °F 57% 29.98 in 10.0 mi NE 4.6 mph - N/A   Clear
9:56 AM 75.9 °F - 57.9 °F 54% 29.98 in 10.0 mi East 4.6 mph - N/A   Clear
10:56 AM 80.1 °F 80.7 °F 59.0 °F 48% 29.99 in 10.0 mi NE 4.6 mph - N/A   Clear
11:56 AM 80.1 °F 80.2 °F 55.9 °F 43% 30.01 in 10.0 mi Calm Calm - N/A   Clear
12:56 PM 79.0 °F - 59.0 °F 50% 30.00 in 10.0 mi East 3.5 mph - N/A   Clear
1:56 PM 79.0 °F - 60.1 °F 52% 29.98 in 10.0 mi East 9.2 mph - N/A   Clear
2:56 PM 81.0 °F 81.0 °F 57.0 °F 44% 29.98 in 10.0 mi ESE 5.8 mph - N/A   Clear
3:56 PM 82.9 °F 81.9 °F 54.0 °F 37% 30.00 in 10.0 mi Variable 3.5 mph - N/A   Clear
4:56 PM 84.0 °F - 50.0 °F 31% 29.99 in 10.0 mi North 11.5 mph - N/A   Clear
5:56 PM 81.0 °F - 48.0 °F 31% 29.98 in 10.0 mi North 18.4 mph 25.3 mph N/A   Clear
6:43 PM 75.2 °F - 48.2 °F 38% 29.94 in 10.0 mi SSE 9.2 mph - 0.00 in Rain Light Rain
6:56 PM 73.9 °F - 48.9 °F 41% 29.93 in 10.0 mi South 5.8 mph - 0.00 in   Scattered Clouds
7:49 PM 73.4 °F - 50.0 °F 44% 29.97 in 10.0 mi SSE 8.1 mph - N/A Thunderstorm Thunderstorm
7:56 PM 75.0 °F - 48.9 °F 40% 29.95 in 10.0 mi South 12.7 mph - N/A Thunderstorm Thunderstorm
8:04 PM 75.2 °F - 50.0 °F 41% 29.99 in 10.0 mi SSW 12.7 mph - N/A   Overcast
8:56 PM 72.0 °F - 53.1 °F 51% 29.95 in 10.0 mi SW 13.8 mph - 0.00 in Rain Light Rain
9:56 PM 71.1 °F - 53.1 °F 53% 29.96 in 10.0 mi SSW 8.1 mph - 0.00 in   Clear
10:56 PM 68.0 °F - 53.1 °F 59% 29.96 in 10.0 mi Calm Calm - N/A   Clear
11:56 PM 64.0 °F - 54.0 °F 70% 29.96 in 10.0 mi Calm Calm - N/A   Clear